User: anonymous   Login
Location: ?????????
(55.6553°N, 38.9075°E)
Time: 20:38:01
(UTC+00:00)
Language:

Cosmos 1745 Rocket - Orbit

View from above orbital plane
View from above orbital plane
View from above satellite
View from above satellite

Ground track
Ground track

The orbit data is extracted from the following two-line orbital elements,

1 16728U 86037B   19343.52726286  .00000053  00000-0  38409-4 0  9992
2 16728  82.9563  26.2156 0030745 188.7607 278.9798 13.76725728685105
Epoch (UTC): 09 December 2019 12:39:15
Eccentricity: 0.0030745
inclination: 82.9563°
perigee height: 953 km
apogee height: 998 km
right ascension of ascending node: 26.2156°
argument of perigee: 188.7607°
revolutions per day: 13.76725728
mean anomaly at epoch: 278.9798°
orbit number at epoch: 68510

The dashed part of the orbit path shows where the satellite is in the earth's shadow,  

DLR